COSMOS 1375 DEB

Satellite information

Favourite Embed

Satellite Type and Status

DEBRISIN ORBIT

Key statistics

Satellite COSMOS 1375 DEB at a glance.

Uptime

15801

Days in orbit

Revolutions

≈ 14.0

Per day

Orbit

LEO

Low Earth Orbit

Inclination

65.8

Latest

Satellite identification and parameters

Extended collection of information and parameters for COSMOS 1375 DEB.

Object identification

Identified? True

Debris? True

Object name: COSMOS 1375 DEB

International designator: 1982-055AR

Object number (NORAD): 17799

Object ID (CCSDS): 17799

Country: COMMONWEALTH OF INDEPENDENT STATES (CIS)

Current information (Y/N): Y

RCS size: SMALL

Orbital parameters

Period: 103.167 minutes

Inclination: 65.8384 deg

SMA: 7286.519 km

Apoapsis: 929.403 km

Periapsis: 887.365 km

RAAN: 318.7539 deg

Eccentricy: 0.0028846

Argument of periapsis: 206.0429 deg

Mean anomaly: 264.8055 deg

Mean motion: 13.95798087 rev/day

Mean motion (dot): 0.00000556 rev/day2

B* drag term: 0.00046778965 1/REarth

Two-line elements (TLE)

Creation date: Sept. 8, 2025, 6:18 p.m.

Reference frame: TEME

Reference center: EARTH

Epoch: Sept. 8, 2025, 1:07 p.m. UTC

TLE line 0: 0 COSMOS 1375 DEB

TLE line 1: 1 17799U 82055AR 25251.54677264 .00000556 00000-0 46779-3 0 9991

TLE line 2: 2 17799 65.8384 318.7539 0028846 206.0429 264.8055 13.95798087 20511

Live tracking on map

Real-time ground track for satellite COSMOS 1375 DEB.

In-orbit conjunctions

A list of the most updated potential collisions computed for object COSMOS 1375 DEB.

Target Orbit TCA Probability of collision Miss distance Type
METEOR 1-18 LEO 2024-11-12 18:08:59 0.001843701 865.0 (m) PAYLOAD

Associated space launch

ASAT target satellite

COSMOS 1375 DEB was lifted into orbit during the mission ‘Kosmos-3M | DS-P1-M 16’, on board a Kosmos-3M space rocket.

The launch took place on June 6, 1982, 5:10 p.m. from 132/2.

For more information about the launch, click the button.

Launch to space Kosmos-3M | DS-P1-M 16
Kosmos-3M | DS-P1-M 16

Agency: N/A

Status: Launch Successful

Launch date: June 6, 1982, 5:10 p.m. UTC

Rocket: Kosmos-3M

Launch pad: 132/2

Location: Plesetsk Cosmodrome, Russian Federation

...

Latest news about this satellite

There are no fresh news available about this satellite. Check back as we update our databases every day.


Newsletter sign-up

Weekly statistics, charts and insights to help you stay on top of the space industry.